Weather Roundup
Issued by NWS Chicago, IL

Home | Current Version | Previous Version | Graphics & Text | Print | Product List | Glossary On
Versions: 1 2 3 4 5 6 7 8 9 10 11 12 13 14 15 16 17 18 19 20 21 22 23 24 25 26 27 28 29 30 31 32 33 34 35 36 37 38 39 40 41 42 43 44 45 46 47 48 49 50
077
NZUS59 KLOT 250604
HRRLOT

CHICAGO AREA WEATHER ROUNDUP
NATIONAL WEATHER SERVICE CHICAGO/ROMEOVILLE IL
100 AM CDT SUN SEP 25 2016

NOTE: "FAIR" INDICATES FEW OR NO CLOUDS BELOW 12,000 FEET WITH NO
SIGNIFICANT WEATHER AND/OR OBSTRUCTIONS TO VISIBILITY.

* THESE STATIONS ARE NOT UNDER NWS QUALITY CONTROL. THEY ALSO MAY NOT
  REPORT WEATHER SUCH AS PRECIPITATION OR FOG.

ILZ005-006-012>014-019>023-250700-
NORTHEAST ILLINOIS

CITY           SKY/WX    TMP DP  RH WIND       PRES   REMARKS
OHARE          CLEAR     68  63  84 E7        30.12S
6HR MIN TEMP:  68; 6HR MAX TEMP:  70;

MIDWAY         CLEAR     70  62  76 SE8       30.12S
6HR MIN TEMP:  70; 6HR MAX TEMP:  73;

AURORA         CLEAR     66  63  90 E3        30.12S
6HR MIN TEMP:  65; 6HR MAX TEMP:  72;

LANSING*       CLEAR     67  63  86 SE7       30.13F
JOLIET*        CLEAR     69  65  86 SE6       30.12R
WAUKEGAN       CLEAR     68  63  84 SE8       30.12F
6HR MIN TEMP:  65; 6HR MAX TEMP:  68;

DUPAGE AIRPORT CLEAR     67  62  84 SE5       30.11F
6HR MIN TEMP:  64; 6HR MAX TEMP:  70;

WHEELING       CLEAR     67  63  87 E5        30.13F
6HR MIN TEMP:  67; 6HR MAX TEMP:  68;

KANKAKEE*      PTCLDY    67  65  91 E7        30.12S
MORRIS*        MOCLDY    67  65  91 E5        30.10S
LEWIS AIRPORT* CLEAR     67  66  95 SE7       30.12S
NORTHERLY ISL    N/A     68  63  84 SE8         N/A
$$

WIZ051-052-058>065-066-070>072-250700-
SOUTHEAST WISCONSIN

CITY           SKY/WX    TMP DP  RH WIND       PRES   REMARKS
MILWAUKEE      CLEAR     66  61  84 SE7       30.13F
6HR MIN TEMP:  66; 6HR MAX TEMP:  67;

KENOSHA*       CLEAR     67  62  84 E7        30.13F
RACINE*        CLEAR     68  61  78 SE8       30.14F
WAUKESHA       CLEAR     61  59  94 E6        30.15S
WEST BEND      CLEAR     59  55  88 CALM      30.15S
$$

INZ001>003-010>013-019-020-250700-
NORTHWEST INDIANA

CITY           SKY/WX    TMP DP  RH WIND       PRES   REMARKS
GARY*          CLEAR     69  63  80 SE6       30.13F
6HR MIN TEMP:  67; 6HR MAX TEMP:  72;

MICHIGAN CITY* NOT AVBL
RENSSELAER*    NOT AVBL
VALPARAISO     CLEAR     63  59  87 E8        30.15F
$$

LMZ740>746-250700-
SOUTHERN LAKE MICHIGAN

STATION/POSITION TIME  SKY/WX   TEMP WIND        PRES    VSBY
                                AIR  DIR/SP/G
                 (UTC)          (F)  (DEG/KT/KT) (MB)    (MI)
HARRISON CRIB    0520            71  130/ 14/ 16   N/A
BURNHAM HARBOR   0600            68  140/  8/  9   N/A
CALUMET HARBOR   0500            69  110/  7/  9 1019.8F
BURNS HARBOR     0512            69  140/ 11/ 16 1021.0S
MICHIGAN CITY    0500            67  110/  8/ 11   N/A
$$

ABBREVIATIONS USED IN REMARKS
   TC - TEMPERATURE IN CELSIUS
  WCI - WIND CHILL INDEX
   HX - HEAT INDEX
  VSB - VISIBILITY
$$




USA.gov is the U.S. government's official web portal to all federal, state and local government web resources and services.